Meath Environmental Platform

Observations for Trim Patrick St

Time AQI Temp °C Hum % Pres Pa CO μg/m³ H₂S μg/m³ NO μg/m³ NO₂ μg/m³ O₃ μg/m³ SO₂ μg/m³ PM1 μg/m³ PM2.5 μg/m³ PM10 μg/m³
Monday 3 August 2026
22:35 3 16.9 81 38,460 0.08 14.25 0.56 59.38 45.87 0 4.57 7.95 8.75
22:34 3 16.9 82 38,460 0.09 12.24 0.5 35 22.3 0 3.71 5.79 6.37
22:33 3 16.9 82 38,460 0.04 14.75 0.73 54.86 39.48 0 4.57 6.51 7.16
22:32 3 16.9 82 38,460 0.07 11.56 0.73 50.25 17.65 0 2.86 5.81 6.39
22:31 3 16.9 82 38,460 0.07 9.65 0.9 32.08 25.16 0 3.71 6.5 7.15
22:30 3 16.9 82 38,460 0.07 12.79 0.82 46.33 20.39 0 3.71 6.51 7.16
22:29 3 16.9 82 38,460 0.06 11.45 0.63 41.36 18.44 0 3.71 7.2 7.92
22:28 3 16.9 82 38,460 0.06 11.14 0.63 35.66 21.9 0 2.86 6.51 7.16
22:27 3 16.9 82 38,460 0.05 14.28 0.53 48.83 24.65 0 3.71 6.51 7.16
22:26 3 17 81 38,460 0.05 15.09 0.39 57.56 41.21 0 3.71 6.57 7.23
22:25 3 17 81 38,460 0.07 14.8 0.49 54.79 34.07 0 6.29 11.41 12.55
22:24 3 17 81 38,460 0.08 15.45 0.75 63.28 19.03 0 8.86 13.55 14.9
22:23 3 17 81 38,460 0.07 14.54 0.82 47.96 22.19 0 5.43 10.76 11.84
22:22 3 17 80 38,460 0.07 13.78 1.09 60.74 27.22 0 5.43 10.79 11.87
22:21 3 17 80 38,460 0.08 12.05 1.09 58.6 0.71 0.52 5.43 10.8 11.88
22:20 3 17 80 38,460 0.06 9.86 1.07 46.13 13.58 0 4.57 8.71 9.58
22:19 3 17.1 80 38,460 0.05 9.07 0.84 32.94 25.28 0 2 5.21 5.73
22:18 3 17.1 80 38,460 0.05 11.17 0.79 38.25 25.66 0.21 3.71 6.6 7.26
22:17 3 17.1 80 38,460 0.04 10.93 0.53 42.88 16.44 0 2.86 6.6 7.26
22:16 3 17.1 80 38,460 0.03 9.89 0.52 37.52 21.32 0 2.86 6.61 7.28